#timestamp,LO_Frequency,Hit,StdDev 
1545958815.2,286046998.2,N
1545958835.9,286046998.6,N
1545958855.7,286047000.7,N
1545958875.6,286046998.5,N
1545958895.4,286047000.2,N
1545958915.3,286046999.9,N
1545958935.1,286047000.1,N
1545958936.0,286047000.1,N
1545958955.8,286046998.7,N
1545958975.7,286046999.2,N
1545958995.5,286046998.4,N
1545959015.3,286047000.0,N
1545959035.2,286047000.0,N
1545959055.0,286046999.7,N
1545959055.9,286046999.7,N
1545959075.8,286047000.2,N
1545959095.6,286047000.0,N
1545959115.4,286047000.2,N
1545959135.3,286047002.8,Y
1545959155.1,286047002.7,P
1545959175.9,286047002.0,N
1545959195.7,286047001.6,N
1545959215.5,286047002.5,N
1545959235.4,286047000.1,N
1545959255.2,286047000.0,N
1545959275.0,286046999.8,N
1545959276.0,286046999.8,N
1545959295.8,286046999.7,N
1545959315.6,286047000.4,N
1545959335.5,286046999.8,N
1545959355.3,286047002.5,N
1545959375.1,286046999.8,N
1545959395.9,286047000.5,N
1545959415.7,286047001.7,N
1545959435.6,286047002.0,N
1545959455.4,286047002.3,N
1545959475.2,286047002.6,N
1545959495.1,286047002.3,N
1545959496.0,286047002.3,N
1545959515.8,286047002.5,N
1545959535.6,286047000.1,N
1545959555.5,286047000.2,N
1545959575.3,286047001.0,N
1545959595.2,286046999.8,N
1545959615.9,286046999.9,N
1545959635.7,286047000.3,N
1545959655.6,286047000.4,N
1545959675.4,286046998.7,N
1545959695.2,286046999.3,N
1545959715.1,286046999.0,N
1545959716.0,286046999.0,N
1545959735.8,286047000.1,N
1545959755.1,286047002.0,N
1545959756.0,286047002.0,N
1545959775.8,286047002.1,N
1545959795.6,286047001.7,N
1545959815.5,286047004.4,Y
1545959835.3,286047001.9,P
1545959855.2,286047002.6,P
1545959875.9,286047002.3,P
1545959895.7,286047000.3,N
1545959915.6,286047000.5,N
1545959935.4,286047000.3,N
1545959955.2,286047000.8,N
1545959975.1,286047000.1,N
1545959976.0,286047000.1,N
1545959995.8,286047002.1,N
1545960015.7,286046999.8,N
1545960035.5,286047000.0,N
1545960055.3,286047000.5,N
1545960075.2,286047000.0,N
1545960095.0,286047000.9,N
1545960095.9,286047000.9,N
1545960115.8,286047002.8,Y
1545960135.6,286047000.4,P
1545960155.4,286047001.0,P
1545960175.3,286047001.2,P
1545960195.1,286047001.1,Y
1545960215.9,286046998.7,P
1545960235.7,286046998.6,N
1545960255.5,286047001.1,N
1545960275.4,286046998.9,N
1545960295.2,286046999.0,N
1545960315.0,286046998.9,N
1545960315.9,286046998.9,N
1545960335.8,286047000.5,N
1545960355.6,286047002.4,N
1545960375.5,286047002.8,N
1545960395.3,286046999.9,N
1545960415.1,286047000.7,N
1545960435.9,286047001.1,N
1545960455.7,286047001.1,N
1545960475.6,286046998.3,N
1545960495.4,286046998.3,N
1545960515.2,286046998.3,N
1545960535.1,286046998.6,N
1545960536.0,286046998.6,N
1545960555.8,286046999.0,N
1545960575.6,286046999.0,N
1545960595.5,286046996.7,N
1545960615.3,286046997.5,N
1545960635.2,286046996.7,N
1545960655.9,286046997.0,N
1545960675.7,286046996.6,N
1545960695.6,286046999.1,N
1545960715.4,286046998.3,N
1545960735.2,286046999.0,N
1545960755.1,286046999.3,N
1545960756.0,286046999.3,N
1545960775.8,286046999.2,N
1545960795.7,286046998.9,N
1545960815.5,286047000.7,N
1545960835.3,286047000.6,N
1545960855.2,286046998.3,N
1545960875.0,286047001.2,N
1545960875.9,286047001.2,N
1545960895.7,286047002.7,N
1545960915.6,286047001.6,N
1545960935.4,286047002.6,N
1545960955.3,286047000.3,N
1545960975.1,286047000.0,N
1545960976.0,286047000.0,N
1545960995.8,286047002.7,N
1545961015.7,286047000.1,N
1545961035.5,286047000.0,N
1545961055.4,286046999.9,N
1545961075.2,286047000.3,N
1545961095.0,286047000.0,N
1545961095.9,286047000.0,N
1545961115.8,286047000.0,N
1545961135.6,286047000.5,N
1545961155.4,286047000.0,N
1545961175.3,286047000.8,N
1545961195.1,286046998.3,N
1545961215.9,286047000.3,N
1545961235.7,286046998.1,N
1545961255.5,286046998.8,N
1545961275.4,286046996.5,Y
1545961295.2,286046996.5,P
1545961315.0,286046998.3,N
1545961316.0,286046998.3,N
1545961335.8,286047000.0,N
1545961355.6,286047000.5,N
1545961375.8,286046998.5,N
1545961395.6,286046998.1,N
1545961415.5,286046998.5,N
1545961435.3,286046996.6,N
1545961455.2,286046996.8,N
1545961475.9,286046997.8,N
1545961495.7,286046997.5,N
1545961515.7,286046997.5,N
1545961535.5,286046996.5,N
1545961555.3,286046999.0,N
1545961575.2,286047001.1,N
1545961595.9,286047000.5,N
1545961615.7,286047000.2,N
1545961635.6,286046998.3,N
1545961655.4,286046999.1,N
1545961675.3,286046996.5,N
1545961695.1,286046996.7,N
1545961696.0,286046996.7,N
1545961715.8,286046996.9,N
1545961735.7,286046998.3,N
1545961755.5,286047000.5,N
1545961775.3,286047000.3,N
1545961795.2,286047001.0,N
1545961815.0,286047000.8,N
1545961815.9,286047000.8,N
1545961835.8,286046998.9,N
1545961855.6,286047001.2,N
1545961875.4,286046998.3,N
1545961895.0,286046998.8,N
1545961895.9,286046998.8,N
1545961915.8,286046998.3,N
1545961935.6,286046999.5,N
1545961955.5,286046998.4,N
1545961975.3,286046998.6,N
1545961995.1,286046998.6,N
1545962015.9,286046999.8,N
1545962035.7,286047000.6,N
1545962055.5,286047002.6,N
1545962075.4,286047000.4,N
1545962095.2,286047001.0,N
1545962115.1,286047000.6,N
1545962116.0,286047000.6,N
1545962135.8,286046998.1,N
1545962155.6,286047001.0,N
1545962175.5,286047001.0,N
1545962195.3,286047001.1,N
1545962215.2,286047000.5,N
1545962235.9,286046998.5,N
1545962255.7,286046998.7,N
1545962275.6,286046998.2,N
1545962295.4,286047000.2,N
1545962315.2,286047000.0,N
1545962335.1,286047000.5,N
1545962336.0,286047000.5,N
1545962355.8,286047000.5,N
1545962375.7,286047000.9,N
1545962395.5,286046998.2,N
